Location: Janeiro
(34.9957°N, 76.7652°W)
Time: 02:21:51
(UTC+00:00)

Cosmos 1782 Rocket - Pass Details

Date: 14 December 2019
Orbit: 606 x 633 km, 82.5° (Epoch: 20 January)

Event Time Altitude Azimuth Distance (km) Brightness Sun altitude
Rises 22:42:41 0° 357° (N) 2,872 6.8 -9.4°
Reaches altitude 10° 22:44:56 10° 1° (N) 1,962 5.9 -9.8°
Maximum altitude 22:49:13 62° 82° (E) 687 3.5 -10.7°
Drops below altitude 10° 22:53:29 10° 163° (SSE) 1,948 6.2 -11.5°
Sets 22:55:42 0° 167° (SSE) 2,849 7.1 -11.9°
